Time,TemperatureF,DewpointF,PressureIn,WindDirection,WindDirectionDegrees,WindSpeedMPH,WindSpeedGustMPH,Humidity,HourlyPrecipIn,Conditions,Clouds,dailyrainin,SoftwareType,DateUTC
2013-09-08 00:01:00,73.7,67.9,31.24,SSW,197,0.0,0.0,82,0.00,,---,0.00,VWS V14.00,2013-09-08 04:01:00,
2013-09-08 00:02:00,73.7,67.9,31.24,SSW,196,0.0,0.0,82,0.00,,---,0.00,VWS V14.00,2013-09-08 04:02:00,
2013-09-08 00:07:00,73.9,68.4,31.24,SSW,197,0.0,0.0,83,0.00,,---,0.00,VWS V14.00,2013-09-08 04:07:00,
2013-09-08 00:10:00,73.9,68.4,31.24,SSW,197,0.0,0.0,83,0.00,,---,0.00,VWS V14.00,2013-09-08 04:10:00,
2013-09-08 00:15:00,73.8,68.3,31.24,SSW,198,4.0,4.0,83,0.00,,---,0.00,VWS V14.00,2013-09-08 04:15:00,
2013-09-08 00:20:00,73.3,68.2,31.24,SSW,198,1.0,4.0,84,0.00,,---,0.00,VWS V14.00,2013-09-08 04:20:00,
2013-09-08 00:25:00,72.8,68.0,31.24,SSW,198,0.0,4.0,85,0.00,,---,0.00,VWS V14.00,2013-09-08 04:25:00,
2013-09-08 00:30:00,72.4,68.3,31.24,SSW,198,0.0,4.0,87,0.00,,---,0.00,VWS V14.00,2013-09-08 04:30:00,
2013-09-08 00:35:00,72.3,68.2,31.24,SSW,198,0.0,4.0,87,0.00,,---,0.00,VWS V14.00,2013-09-08 04:35:00,
2013-09-08 00:40:00,72.1,68.3,31.24,SSW,198,3.0,4.0,88,0.00,,---,0.00,VWS V14.00,2013-09-08 04:40:00,
2013-09-08 00:45:00,71.9,68.2,31.24,SSW,198,0.0,4.0,88,0.00,,---,0.00,VWS V14.00,2013-09-08 04:45:00,
2013-09-08 00:50:00,71.7,68.3,31.24,SSW,198,1.0,4.0,89,0.00,,---,0.00,VWS V14.00,2013-09-08 04:50:00,
2013-09-08 00:55:00,71.7,68.3,31.24,SSW,198,0.0,4.0,89,0.00,,---,0.00,VWS V14.00,2013-09-08 04:55:00,
2013-09-08 01:00:00,71.8,68.4,31.24,SSW,198,0.0,4.0,89,0.00,,---,0.00,VWS V14.00,2013-09-08 05:00:00,
2013-09-08 01:05:00,71.9,68.5,31.24,SSW,198,0.0,4.0,89,0.00,,---,0.00,VWS V14.00,2013-09-08 05:05:00,
2013-09-08 01:10:00,71.9,68.5,31.24,SSW,198,1.0,3.0,89,0.00,,---,0.00,VWS V14.00,2013-09-08 05:10:00,
2013-09-08 01:15:00,71.8,68.4,31.24,SSW,198,2.0,4.0,89,0.00,,---,0.00,VWS V14.00,2013-09-08 05:15:00,
2013-09-08 01:20:00,71.8,68.4,31.24,SSW,198,1.0,4.0,89,0.00,,---,0.00,VWS V14.00,2013-09-08 05:20:00,
2013-09-08 01:25:00,71.8,68.7,31.24,SW,215,0.0,6.0,90,0.00,,---,0.00,VWS V14.00,2013-09-08 05:25:00,
2013-09-08 01:30:00,71.9,68.5,31.24,SW,215,0.0,6.0,89,0.00,,---,0.00,VWS V14.00,2013-09-08 05:30:00,
2013-09-08 01:35:00,71.9,68.5,31.24,SW,215,1.0,6.0,89,0.00,,---,0.00,VWS V14.00,2013-09-08 05:35:00,
2013-09-08 01:41:00,71.9,68.5,31.24,SW,215,0.0,3.0,89,0.00,,---,0.00,VWS V14.00,2013-09-08 05:41:00,
2013-09-08 01:46:00,71.8,68.4,31.24,SW,217,0.0,3.0,89,0.00,,---,0.00,VWS V14.00,2013-09-08 05:46:00,
2013-09-08 01:51:00,71.8,68.4,31.24,SW,217,0.0,3.0,89,0.00,,---,0.00,VWS V14.00,2013-09-08 05:51:00,
2013-09-08 01:56:00,71.8,68.4,31.24,SW,217,0.0,3.0,89,0.00,,---,0.00,VWS V14.00,2013-09-08 05:56:00,
2013-09-08 02:01:00,71.7,68.3,31.24,SW,217,0.0,3.0,89,0.00,,---,0.00,VWS V14.00,2013-09-08 06:01:00,
2013-09-08 02:06:00,71.5,68.1,31.24,SW,217,3.0,3.0,89,0.00,,---,0.00,VWS V14.00,2013-09-08 06:06:00,
2013-09-08 02:11:00,71.3,67.9,31.24,SW,217,0.0,3.0,89,0.00,,---,0.00,VWS V14.00,2013-09-08 06:11:00,
2013-09-08 02:16:00,71.3,68.2,31.24,SW,217,0.0,4.0,90,0.00,,---,0.00,VWS V14.00,2013-09-08 06:16:00,
2013-09-08 02:21:00,71.3,68.2,31.24,SW,217,0.0,4.0,90,0.00,,---,0.00,VWS V14.00,2013-09-08 06:21:00,
2013-09-08 02:26:00,71.3,68.2,31.24,SW,217,0.0,4.0,90,0.00,,---,0.00,VWS V14.00,2013-09-08 06:26:00,
2013-09-08 02:31:00,71.4,68.3,31.24,SW,216,3.0,5.0,90,0.00,,---,0.00,VWS V14.00,2013-09-08 06:31:00,
2013-09-08 02:36:00,71.7,68.6,31.24,SSW,201,3.0,7.0,90,0.00,,---,0.00,VWS V14.00,2013-09-08 06:36:00,
2013-09-08 02:41:00,71.8,68.4,31.24,SSW,200,0.0,0.0,89,0.00,,---,0.00,VWS V14.00,2013-09-08 06:41:00,
2013-09-08 02:46:00,71.8,68.7,31.24,SSW,201,0.0,1.0,90,0.00,,---,0.00,VWS V14.00,2013-09-08 06:46:00,
2013-09-08 02:51:00,71.7,68.3,31.24,SSW,200,0.0,1.0,89,0.00,,---,0.00,VWS V14.00,2013-09-08 06:51:00,
2013-09-08 02:56:00,71.6,68.5,31.24,SSW,201,0.0,1.0,90,0.00,,---,0.00,VWS V14.00,2013-09-08 06:56:00,
2013-09-08 03:01:00,71.6,68.5,31.24,SSW,201,0.0,1.0,90,0.00,,---,0.00,VWS V14.00,2013-09-08 07:01:00,
2013-09-08 03:06:00,71.5,68.4,31.24,NW,317,1.0,5.0,90,0.00,,---,0.00,VWS V14.00,2013-09-08 07:06:00,
2013-09-08 03:11:00,71.4,68.3,31.24,NW,317,1.0,3.0,90,0.00,,---,0.00,VWS V14.00,2013-09-08 07:11:00,
2013-09-08 03:16:00,71.3,68.2,31.24,NW,317,0.0,3.0,90,0.00,,---,0.00,VWS V14.00,2013-09-08 07:16:00,
2013-09-08 03:21:00,71.2,68.1,31.24,NW,317,0.0,3.0,90,0.00,,---,0.00,VWS V14.00,2013-09-08 07:21:00,
2013-09-08 03:26:00,71.0,67.9,31.24,NW,317,0.0,3.0,90,0.00,,---,0.00,VWS V14.00,2013-09-08 07:26:00,
2013-09-08 03:32:00,71.0,67.9,31.24,NW,317,2.0,3.0,90,0.00,,---,0.00,VWS V14.00,2013-09-08 07:32:00,
2013-09-08 03:37:00,70.9,67.8,31.24,NW,317,0.0,3.0,90,0.00,,---,0.00,VWS V14.00,2013-09-08 07:37:00,
2013-09-08 03:42:00,70.9,67.8,31.24,NW,317,1.0,3.0,90,0.00,,---,0.00,VWS V14.00,2013-09-08 07:42:00,
2013-09-08 03:47:00,71.0,68.2,31.24,NW,317,0.0,3.0,91,0.00,,---,0.00,VWS V14.00,2013-09-08 07:47:00,
2013-09-08 03:52:00,70.9,68.2,31.24,NW,317,0.0,3.0,91,0.00,,---,0.00,VWS V14.00,2013-09-08 07:52:00,
2013-09-08 03:57:00,71.0,68.2,31.24,NW,317,0.0,3.0,91,0.00,,---,0.00,VWS V14.00,2013-09-08 07:57:00,
2013-09-08 04:02:00,71.0,68.2,31.24,NW,317,0.0,3.0,91,0.00,,---,0.00,VWS V14.00,2013-09-08 08:02:00,
2013-09-08 04:07:00,71.1,68.3,31.24,NW,317,0.0,3.0,91,0.00,,---,0.00,VWS V14.00,2013-09-08 08:07:00,
2013-09-08 04:12:00,71.2,68.4,31.24,NW,317,0.0,1.0,91,0.00,,---,0.00,VWS V14.00,2013-09-08 08:12:00,
2013-09-08 04:17:00,71.3,68.5,31.24,NW,317,0.0,1.0,91,0.00,,---,0.00,VWS V14.00,2013-09-08 08:17:00,
2013-09-08 04:22:00,71.3,68.5,31.24,NW,317,0.0,1.0,91,0.00,,---,0.00,VWS V14.00,2013-09-08 08:22:00,
2013-09-08 04:27:00,71.3,68.5,31.24,NW,317,3.0,3.0,91,0.00,,---,0.00,VWS V14.00,2013-09-08 08:27:00,
2013-09-08 04:32:00,71.4,68.6,31.24,NW,317,0.0,3.0,91,0.00,,---,0.00,VWS V14.00,2013-09-08 08:32:00,
2013-09-08 04:37:00,71.5,68.7,31.24,NW,317,0.0,3.0,91,0.00,,---,0.00,VWS V14.00,2013-09-08 08:37:00,
2013-09-08 04:42:00,71.7,68.9,31.24,NW,317,0.0,0.0,91,0.00,,---,0.00,VWS V14.00,2013-09-08 08:42:00,
2013-09-08 04:47:00,71.7,68.9,31.24,NW,317,0.0,1.0,91,0.00,,---,0.00,VWS V14.00,2013-09-08 08:47:00,
2013-09-08 04:52:00,71.6,68.8,31.24,NW,317,0.0,1.0,91,0.00,,---,0.00,VWS V14.00,2013-09-08 08:52:00,
2013-09-08 04:57:00,71.7,68.9,31.24,NW,317,0.0,1.0,91,0.00,,---,0.00,VWS V14.00,2013-09-08 08:57:00,
2013-09-08 05:02:00,71.6,68.8,31.24,NW,317,2.0,2.0,91,0.00,,---,0.00,VWS V14.00,2013-09-08 09:02:00,
2013-09-08 05:07:00,71.5,68.7,31.24,NW,317,0.0,0.0,91,0.00,,---,0.00,VWS V14.00,2013-09-08 09:07:00,
2013-09-08 05:12:00,71.3,68.5,31.24,NW,317,0.0,1.0,91,0.00,,---,0.00,VWS V14.00,2013-09-08 09:12:00,
2013-09-08 05:17:00,71.3,68.5,31.24,NW,317,0.0,1.0,91,0.00,,---,0.00,VWS V14.00,2013-09-08 09:17:00,
2013-09-08 05:22:00,71.3,68.5,31.24,NW,317,0.0,1.0,91,0.00,,---,0.00,VWS V14.00,2013-09-08 09:22:00,
2013-09-08 05:28:00,71.3,68.5,31.24,NW,317,0.0,1.0,91,0.00,,---,0.00,VWS V14.00,2013-09-08 09:28:00,
2013-09-08 05:33:00,71.2,68.4,31.24,NW,317,0.0,1.0,91,0.00,,---,0.00,VWS V14.00,2013-09-08 09:33:00,
2013-09-08 05:38:00,71.1,68.3,31.24,NW,317,0.0,0.0,91,0.00,,---,0.00,VWS V14.00,2013-09-08 09:38:00,
2013-09-08 05:43:00,71.1,68.3,31.24,NW,317,0.0,0.0,91,0.00,,---,0.00,VWS V14.00,2013-09-08 09:43:00,
2013-09-08 05:48:00,71.0,68.2,31.24,NW,317,0.0,0.0,91,0.00,,---,0.00,VWS V14.00,2013-09-08 09:48:00,
2013-09-08 05:53:00,70.9,68.2,31.24,NW,317,0.0,0.0,91,0.00,,---,0.00,VWS V14.00,2013-09-08 09:53:00,
2013-09-08 05:58:00,70.8,68.1,31.24,NW,317,0.0,2.0,91,0.00,,---,0.00,VWS V14.00,2013-09-08 09:58:00,
2013-09-08 06:03:00,70.6,67.8,31.24,NW,317,1.0,3.0,91,0.00,,---,0.00,VWS V14.00,2013-09-08 10:03:00,
2013-09-08 06:08:00,70.6,67.8,31.24,NW,317,0.0,0.0,91,0.00,,---,0.00,VWS V14.00,2013-09-08 10:08:00,
2013-09-08 06:13:00,70.7,67.9,31.24,NW,317,2.0,2.0,91,0.00,,---,0.00,VWS V14.00,2013-09-08 10:13:00,
2013-09-08 06:18:00,70.5,68.1,31.24,NW,317,0.0,3.0,92,0.00,,---,0.00,VWS V14.00,2013-09-08 10:18:00,
2013-09-08 06:23:00,70.4,67.7,31.24,NW,317,0.0,3.0,91,0.00,,---,0.00,VWS V14.00,2013-09-08 10:23:00,
2013-09-08 06:28:00,70.4,67.7,31.24,NW,317,0.0,3.0,91,0.00,,---,0.00,VWS V14.00,2013-09-08 10:28:00,
2013-09-08 06:33:00,70.2,67.4,31.24,NW,317,0.0,3.0,91,0.00,,---,0.00,VWS V14.00,2013-09-08 10:33:00,
2013-09-08 06:38:00,70.1,67.4,31.24,NW,317,0.0,0.0,91,0.00,,---,0.00,VWS V14.00,2013-09-08 10:38:00,
2013-09-08 06:43:00,70.0,67.3,31.24,NW,317,0.0,1.0,91,0.00,,---,0.00,VWS V14.00,2013-09-08 10:43:00,
2013-09-08 06:48:00,70.1,67.4,31.24,NW,317,0.0,1.0,91,0.00,,---,0.00,VWS V14.00,2013-09-08 10:48:00,
2013-09-08 06:53:00,70.1,67.4,31.24,NW,317,0.0,1.0,91,0.00,,---,0.00,VWS V14.00,2013-09-08 10:53:00,
2013-09-08 06:58:00,70.2,67.4,31.24,NW,317,0.0,1.0,91,0.00,,---,0.00,VWS V14.00,2013-09-08 10:58:00,
2013-09-08 07:04:00,70.3,67.6,31.24,NW,317,0.0,1.0,91,0.00,,---,0.00,VWS V14.00,2013-09-08 11:04:00,
2013-09-08 07:09:00,70.3,67.6,31.24,NW,317,0.0,0.0,91,0.00,,---,0.00,VWS V14.00,2013-09-08 11:09:00,
2013-09-08 07:14:00,70.2,67.4,31.24,NW,317,0.0,1.0,91,0.00,,---,0.00,VWS V14.00,2013-09-08 11:14:00,
2013-09-08 07:19:00,69.9,67.2,31.24,NW,317,0.0,1.0,91,0.00,,---,0.00,VWS V14.00,2013-09-08 11:19:00,
2013-09-08 07:24:00,70.0,67.3,31.24,NW,317,0.0,2.0,91,0.00,,---,0.00,VWS V14.00,2013-09-08 11:24:00,
2013-09-08 07:29:00,70.2,67.4,31.24,NW,317,0.0,2.0,91,0.00,,---,0.00,VWS V14.00,2013-09-08 11:29:00,
2013-09-08 07:34:00,70.4,67.7,31.24,NW,317,0.0,3.0,91,0.00,,---,0.00,VWS V14.00,2013-09-08 11:34:00,
2013-09-08 07:39:00,70.5,67.8,31.24,NW,317,0.0,1.0,91,0.00,,---,0.00,VWS V14.00,2013-09-08 11:39:00,
2013-09-08 07:44:00,70.5,68.1,32.20,NW,317,0.0,1.0,92,0.00,,---,0.00,VWS V14.00,2013-09-08 11:44:00,
2013-09-08 07:49:00,70.4,67.7,32.20,NW,317,0.0,1.0,91,0.00,,---,0.00,VWS V14.00,2013-09-08 11:49:00,
2013-09-08 07:54:00,70.3,67.6,32.20,NW,317,0.0,1.0,91,0.00,,---,0.00,VWS V14.00,2013-09-08 11:54:00,
2013-09-08 07:59:00,70.3,67.6,32.20,NW,317,0.0,1.0,91,0.00,,---,0.00,VWS V14.00,2013-09-08 11:59:00,
2013-09-08 08:04:00,70.4,67.7,31.74,NW,317,0.0,1.0,91,0.00,,---,0.00,VWS V14.00,2013-09-08 12:04:00,
2013-09-08 08:09:00,70.4,67.7,31.74,NW,317,0.0,0.0,91,0.00,,---,0.00,VWS V14.00,2013-09-08 12:09:00,
2013-09-08 08:14:00,70.5,67.8,31.74,NW,317,0.0,0.0,91,0.00,,---,0.00,VWS V14.00,2013-09-08 12:14:00,
2013-09-08 08:19:00,70.4,67.7,31.74,NW,317,0.0,0.0,91,0.00,,---,0.00,VWS V14.00,2013-09-08 12:19:00,
2013-09-08 08:24:00,70.4,67.7,31.74,NW,317,0.0,0.0,91,0.00,,---,0.00,VWS V14.00,2013-09-08 12:24:00,
2013-09-08 08:30:00,70.3,67.6,31.74,NW,317,0.0,0.0,91,0.00,,---,0.00,VWS V14.00,2013-09-08 12:30:00,
2013-09-08 08:35:00,70.4,67.7,31.74,NW,317,1.0,2.0,91,0.00,,---,0.00,VWS V14.00,2013-09-08 12:35:00,
2013-09-08 08:40:00,70.6,68.2,31.74,NW,317,0.0,0.0,92,0.00,,---,0.00,VWS V14.00,2013-09-08 12:40:00,
2013-09-08 08:45:00,70.9,68.5,31.74,NW,317,0.0,0.0,92,0.00,,---,0.00,VWS V14.00,2013-09-08 12:45:00,
2013-09-08 08:50:00,71.2,68.4,31.74,NW,317,0.0,0.0,91,0.00,,---,0.00,VWS V14.00,2013-09-08 12:50:00,
2013-09-08 08:55:00,71.3,68.9,31.74,NW,317,0.0,1.0,92,0.00,,---,0.00,VWS V14.00,2013-09-08 12:55:00,
2013-09-08 09:00:00,71.7,69.3,31.74,NW,317,0.0,1.0,92,0.00,,---,0.00,VWS V14.00,2013-09-08 13:00:00,
2013-09-08 09:05:00,71.9,69.1,31.74,NW,317,0.0,1.0,91,0.00,,---,0.00,VWS V14.00,2013-09-08 13:05:00,
2013-09-08 09:10:00,72.0,69.6,31.74,NW,317,0.0,0.0,92,0.00,,---,0.00,VWS V14.00,2013-09-08 13:10:00,
2013-09-08 09:15:00,72.1,69.7,31.74,NW,315,0.0,2.0,92,0.00,,---,0.00,VWS V14.00,2013-09-08 13:15:00,
2013-09-08 09:20:00,72.2,69.4,31.74,NW,315,0.0,2.0,91,0.00,,---,0.00,VWS V14.00,2013-09-08 13:20:00,
2013-09-08 09:25:00,72.2,69.4,31.74,NW,315,0.0,2.0,91,0.00,,---,0.00,VWS V14.00,2013-09-08 13:25:00,
2013-09-08 09:30:00,72.7,69.9,31.74,NW,315,0.0,2.0,91,0.00,,---,0.00,VWS V14.00,2013-09-08 13:30:00,
2013-09-08 09:35:00,73.4,70.6,31.74,NW,315,0.0,2.0,91,0.00,,---,0.00,VWS V14.00,2013-09-08 13:35:00,
2013-09-08 09:40:00,73.7,70.9,31.74,NW,315,0.0,0.0,91,0.00,,---,0.00,VWS V14.00,2013-09-08 13:40:00,
2013-09-08 09:46:00,74.2,71.1,31.74,NW,315,0.0,0.0,90,0.00,,---,0.00,VWS V14.00,2013-09-08 13:46:00,
2013-09-08 09:51:00,74.6,71.2,31.74,NW,315,0.0,0.0,89,0.00,,---,0.00,VWS V14.00,2013-09-08 13:51:00,
2013-09-08 09:56:00,74.5,70.4,31.74,NW,315,1.0,1.0,87,0.00,,---,0.00,VWS V14.00,2013-09-08 13:56:00,
2013-09-08 10:01:00,74.6,70.5,31.74,NW,315,0.0,1.0,87,0.00,,---,0.00,VWS V14.00,2013-09-08 14:01:00,
2013-09-08 10:06:00,75.0,70.5,31.74,NW,315,0.0,1.0,86,0.00,,---,0.00,VWS V14.00,2013-09-08 14:06:00,
2013-09-08 10:11:00,75.6,71.1,31.74,NW,316,0.0,1.0,86,0.00,,---,0.00,VWS V14.00,2013-09-08 14:11:00,
2013-09-08 10:16:00,75.7,70.9,31.74,NW,315,3.0,4.0,85,0.00,,---,0.00,VWS V14.00,2013-09-08 14:16:00,
2013-09-08 10:21:00,75.6,70.4,31.74,NW,315,0.0,4.0,84,0.00,,---,0.00,VWS V14.00,2013-09-08 14:21:00,
2013-09-08 10:26:00,75.6,70.4,31.74,South,177,1.0,4.0,84,0.00,,---,0.00,VWS V14.00,2013-09-08 14:26:00,
2013-09-08 10:31:00,75.7,70.5,31.74,SSE,157,3.0,4.0,84,0.00,,---,0.00,VWS V14.00,2013-09-08 14:31:00,
2013-09-08 10:36:00,75.7,70.2,31.74,SSE,156,3.0,5.0,83,0.00,,---,0.00,VWS V14.00,2013-09-08 14:36:00,
2013-09-08 10:41:00,75.8,70.3,31.74,SE,144,3.0,4.0,83,0.00,,---,0.00,VWS V14.00,2013-09-08 14:41:00,
2013-09-08 10:46:00,76.0,70.5,31.74,SE,144,3.0,4.0,83,0.00,,---,0.00,VWS V14.00,2013-09-08 14:46:00,
2013-09-08 10:51:00,76.0,70.5,31.74,SE,144,3.0,4.0,83,0.00,,---,0.00,VWS V14.00,2013-09-08 14:51:00,
2013-09-08 10:56:00,76.2,70.7,31.74,SE,144,3.0,4.0,83,0.00,,---,0.00,VWS V14.00,2013-09-08 14:56:00,
2013-09-08 11:01:00,76.2,70.7,31.60,SE,146,5.0,5.0,83,0.00,,---,0.00,VWS V14.00,2013-09-08 15:01:00,
2013-09-08 11:06:00,76.4,70.9,31.60,SE,131,0.0,8.0,83,0.00,,---,0.00,VWS V14.00,2013-09-08 15:06:00,
2013-09-08 11:12:00,77.0,71.4,31.60,SE,133,4.0,5.0,83,0.00,,---,0.00,VWS V14.00,2013-09-08 15:12:00,
2013-09-08 11:17:00,76.9,71.3,31.60,SE,141,7.0,8.0,83,0.00,,---,0.00,VWS V14.00,2013-09-08 15:17:00,
2013-09-08 11:22:00,76.6,71.1,31.60,SSE,157,5.0,8.0,83,0.00,,---,0.00,VWS V14.00,2013-09-08 15:22:00,
2013-09-08 11:27:00,76.7,71.2,31.60,SSE,156,5.0,8.0,83,0.00,,---,0.00,VWS V14.00,2013-09-08 15:27:00,
2013-09-08 11:32:00,77.0,71.4,31.60,SSE,156,2.0,8.0,83,0.00,,---,0.00,VWS V14.00,2013-09-08 15:32:00,
2013-09-08 11:37:00,77.4,71.5,31.60,SSE,155,3.0,8.0,82,0.00,,---,0.00,VWS V14.00,2013-09-08 15:37:00,
2013-09-08 11:42:00,77.6,71.7,31.60,SSE,155,4.0,4.0,82,0.00,,---,0.00,VWS V14.00,2013-09-08 15:42:00,
2013-09-08 11:47:00,77.8,71.5,31.60,SSE,152,4.0,5.0,81,0.00,,---,0.00,VWS V14.00,2013-09-08 15:47:00,
2013-09-08 11:52:00,77.8,71.5,31.60,SSE,147,3.0,5.0,81,0.00,,---,0.00,VWS V14.00,2013-09-08 15:52:00,
2013-09-08 11:57:00,78.0,71.7,31.60,SE,146,3.0,5.0,81,0.00,,---,0.00,VWS V14.00,2013-09-08 15:57:00,
2013-09-08 12:02:00,78.2,71.9,31.60,SSE,147,0.0,5.0,81,0.00,,---,0.00,VWS V14.00,2013-09-08 16:02:00,
2013-09-08 12:07:00,78.5,72.2,31.60,SSE,147,3.0,5.0,81,0.00,,---,0.00,VWS V14.00,2013-09-08 16:07:00,
2013-09-08 12:12:00,78.7,72.0,31.60,SSE,147,3.0,4.0,80,0.00,,---,0.00,VWS V14.00,2013-09-08 16:12:00,
2013-09-08 12:17:00,78.7,72.0,31.60,SSE,147,0.0,4.0,80,0.00,,---,0.00,VWS V14.00,2013-09-08 16:17:00,
2013-09-08 12:22:00,78.9,72.2,31.60,SSE,147,4.0,5.0,80,0.00,,---,0.00,VWS V14.00,2013-09-08 16:22:00,
2013-09-08 12:27:00,79.1,72.4,31.60,SSE,150,3.0,5.0,80,0.00,,---,0.00,VWS V14.00,2013-09-08 16:27:00,
2013-09-08 12:33:00,79.4,72.7,31.60,SSE,151,5.0,5.0,80,0.00,,---,0.00,VWS V14.00,2013-09-08 16:33:00,
2013-09-08 12:38:00,79.7,72.2,31.60,SSE,152,3.0,4.0,78,0.00,,---,0.00,VWS V14.00,2013-09-08 16:38:00,
2013-09-08 12:43:00,79.7,72.2,31.60,SSE,152,4.0,5.0,78,0.00,,---,0.00,VWS V14.00,2013-09-08 16:43:00,
2013-09-08 12:48:00,79.7,72.2,31.60,SSE,161,4.0,5.0,78,0.00,,---,0.00,VWS V14.00,2013-09-08 16:48:00,
2013-09-08 12:53:00,80.0,72.2,31.60,SSE,165,4.0,6.0,77,0.00,,---,0.00,VWS V14.00,2013-09-08 16:53:00,
2013-09-08 12:58:00,80.2,72.3,31.60,SSE,165,0.0,6.0,77,0.00,,---,0.00,VWS V14.00,2013-09-08 16:58:00,
2013-09-08 13:03:00,80.5,71.5,31.60,South,172,0.0,6.0,74,0.00,,---,0.00,VWS V14.00,2013-09-08 17:03:00,
2013-09-08 13:08:00,80.7,72.0,31.60,South,172,0.0,0.0,75,0.00,,---,0.00,VWS V14.00,2013-09-08 17:08:00,
2013-09-08 13:13:00,80.8,72.1,31.60,South,172,2.0,5.0,75,0.00,,---,0.00,VWS V14.00,2013-09-08 17:13:00,
2013-09-08 13:18:00,80.8,72.1,31.60,South,173,0.0,5.0,75,0.00,,---,0.00,VWS V14.00,2013-09-08 17:18:00,
2013-09-08 13:23:00,80.7,72.0,31.60,SSE,159,3.0,6.0,75,0.00,,---,0.00,VWS V14.00,2013-09-08 17:23:00,
2013-09-08 13:28:00,80.7,72.4,31.60,South,173,2.0,6.0,76,0.00,,---,0.00,VWS V14.00,2013-09-08 17:28:00,
2013-09-08 13:33:00,80.8,72.1,31.60,South,172,2.0,6.0,75,0.00,,---,0.00,VWS V14.00,2013-09-08 17:33:00,
2013-09-08 13:38:00,80.9,71.8,31.60,South,173,0.0,0.0,74,0.00,,---,0.00,VWS V14.00,2013-09-08 17:38:00,
2013-09-08 13:43:00,81.1,71.6,31.60,South,172,0.0,1.0,73,0.00,,---,0.00,VWS V14.00,2013-09-08 17:43:00,
2013-09-08 13:48:00,81.1,71.6,31.60,South,173,0.0,1.0,73,0.00,,---,0.00,VWS V14.00,2013-09-08 17:48:00,
2013-09-08 13:53:00,81.1,71.6,31.60,South,173,0.0,1.0,73,0.00,,---,0.00,VWS V14.00,2013-09-08 17:53:00,
2013-09-08 13:58:00,81.2,71.3,31.60,South,172,0.0,1.0,72,0.00,,---,0.00,VWS V14.00,2013-09-08 17:58:00,
2013-09-08 14:03:00,81.5,71.6,31.60,South,173,0.0,1.0,72,0.00,,---,0.00,VWS V14.00,2013-09-08 18:03:00,
2013-09-08 14:09:00,81.7,71.8,31.60,South,173,0.0,1.0,72,0.00,,---,0.00,VWS V14.00,2013-09-08 18:09:00,
2013-09-08 14:14:00,81.6,71.7,31.60,South,172,0.0,1.0,72,0.00,,---,0.00,VWS V14.00,2013-09-08 18:14:00,
2013-09-08 14:19:00,81.4,71.9,31.60,South,172,0.0,1.0,73,0.00,,---,0.00,VWS V14.00,2013-09-08 18:19:00,
2013-09-08 14:24:00,81.4,72.3,31.60,South,173,0.0,1.0,74,0.00,,---,0.00,VWS V14.00,2013-09-08 18:24:00,
2013-09-08 14:29:00,81.2,71.7,31.60,South,172,0.0,3.0,73,0.00,,---,0.00,VWS V14.00,2013-09-08 18:29:00,
2013-09-08 14:34:00,81.0,71.9,31.60,South,170,0.0,3.0,74,0.00,,---,0.00,VWS V14.00,2013-09-08 18:34:00,
2013-09-08 14:39:00,81.0,71.9,31.60,South,170,0.0,0.0,74,0.00,,---,0.00,VWS V14.00,2013-09-08 18:39:00,
2013-09-08 14:44:00,81.0,71.9,31.60,South,170,0.0,1.0,74,0.00,,---,0.00,VWS V14.00,2013-09-08 18:44:00,
2013-09-08 14:49:00,80.9,71.8,25.44,South,170,0.0,1.0,74,0.00,,---,0.00,VWS V14.00,2013-09-08 18:49:00,
2013-09-08 14:54:00,80.9,71.8,25.44,South,170,0.0,1.0,74,0.00,,---,0.00,VWS V14.00,2013-09-08 18:54:00,
2013-09-08 14:59:00,80.9,71.8,25.44,South,169,0.0,1.0,74,0.00,,---,0.00,VWS V14.00,2013-09-08 18:59:00,
2013-09-08 15:04:00,80.9,71.8,25.44,South,170,0.0,1.0,74,0.00,,---,0.00,VWS V14.00,2013-09-08 19:04:00,
2013-09-08 15:09:00,80.9,71.8,25.44,South,169,0.0,1.0,74,0.00,,---,0.00,VWS V14.00,2013-09-08 19:09:00,
2013-09-08 15:14:00,80.9,71.8,25.44,South,170,0.0,1.0,74,0.00,,---,0.00,VWS V14.00,2013-09-08 19:14:00,
2013-09-08 15:19:00,81.0,71.9,25.44,South,170,0.0,1.0,74,0.00,,---,0.00,VWS V14.00,2013-09-08 19:19:00,
2013-09-08 15:24:00,81.5,72.4,25.44,South,170,0.0,1.0,74,0.00,,---,0.00,VWS V14.00,2013-09-08 19:24:00,
2013-09-08 15:30:00,81.8,73.1,25.44,South,169,0.0,1.0,75,0.00,,---,0.00,VWS V14.00,2013-09-08 19:30:00,
2013-09-08 15:35:00,82.0,72.5,25.44,South,169,0.0,1.0,73,0.00,,---,0.00,VWS V14.00,2013-09-08 19:35:00,
2013-09-08 15:40:00,82.2,72.7,25.44,South,170,0.0,0.0,73,0.00,,---,0.00,VWS V14.00,2013-09-08 19:40:00,
2013-09-08 15:45:00,82.3,72.4,25.44,South,170,0.0,0.0,72,0.00,,---,0.00,VWS V14.00,2013-09-08 19:45:00,
2013-09-08 15:50:00,82.3,72.4,25.44,South,170,0.0,0.0,72,0.00,,---,0.00,VWS V14.00,2013-09-08 19:50:00,
2013-09-08 15:55:00,82.3,72.4,25.44,South,170,0.0,0.0,72,0.00,,---,0.00,VWS V14.00,2013-09-08 19:55:00,
2013-09-08 16:01:00,82.3,72.4,25.44,South,170,0.0,1.0,72,0.00,,---,0.00,VWS V14.00,2013-09-08 20:01:00,
2013-09-08 16:06:00,82.3,72.4,25.44,South,169,0.0,1.0,72,0.00,,---,0.00,VWS V14.00,2013-09-08 20:06:00,
2013-09-08 16:11:00,82.1,72.2,25.44,South,170,0.0,0.0,72,0.00,,---,0.00,VWS V14.00,2013-09-08 20:11:00,
2013-09-08 16:16:00,82.2,72.7,25.44,South,170,0.0,0.0,73,0.00,,---,0.00,VWS V14.00,2013-09-08 20:16:00,
2013-09-08 16:21:00,82.2,72.3,25.44,South,170,0.0,0.0,72,0.00,,---,0.00,VWS V14.00,2013-09-08 20:21:00,
2013-09-08 16:26:00,82.2,72.3,25.44,South,170,0.0,0.0,72,0.00,,---,0.00,VWS V14.00,2013-09-08 20:26:00,
2013-09-08 16:31:00,82.1,73.8,25.44,South,170,0.0,1.0,76,0.00,,---,0.00,VWS V14.00,2013-09-08 20:31:00,
2013-09-08 16:36:00,82.1,73.4,25.44,South,169,0.0,1.0,75,0.00,,---,0.00,VWS V14.00,2013-09-08 20:36:00,
2013-09-08 16:41:00,82.2,73.1,25.44,South,169,0.0,0.0,74,0.00,,---,0.00,VWS V14.00,2013-09-08 20:41:00,
2013-09-08 16:47:00,82.6,74.3,25.44,South,169,0.0,0.0,76,0.00,,---,0.00,VWS V14.00,2013-09-08 20:47:00,
2013-09-08 16:52:00,82.7,73.2,25.44,South,170,0.0,0.0,73,0.00,,---,0.00,VWS V14.00,2013-09-08 20:52:00,
2013-09-08 16:57:00,82.4,73.3,25.44,South,169,0.0,1.0,74,0.00,,---,0.00,VWS V14.00,2013-09-08 20:57:00,
2013-09-08 17:02:00,82.1,73.0,25.44,South,169,0.0,1.0,74,0.00,,---,0.00,VWS V14.00,2013-09-08 21:02:00,
2013-09-08 17:07:00,82.0,73.3,25.44,South,169,0.0,1.0,75,0.00,,---,0.00,VWS V14.00,2013-09-08 21:07:00,
2013-09-08 17:12:00,82.1,72.6,25.44,South,169,0.0,0.0,73,0.00,,---,0.00,VWS V14.00,2013-09-08 21:12:00,
2013-09-08 17:17:00,82.2,72.7,25.44,South,169,0.0,1.0,73,0.00,,---,0.00,VWS V14.00,2013-09-08 21:17:00,
2013-09-08 17:22:00,82.3,72.4,25.44,South,170,0.0,1.0,72,0.00,,---,0.00,VWS V14.00,2013-09-08 21:22:00,
2013-09-08 17:27:00,82.4,71.2,25.44,South,169,0.0,1.0,69,0.00,,---,0.00,VWS V14.00,2013-09-08 21:27:00,
2013-09-08 17:32:00,82.8,72.4,25.44,South,170,0.0,1.0,71,0.00,,---,0.00,VWS V14.00,2013-09-08 21:32:00,
2013-09-08 17:38:00,83.3,72.9,25.44,South,170,0.0,0.0,71,0.00,,---,0.00,VWS V14.00,2013-09-08 21:38:00,
2013-09-08 17:43:00,83.4,73.4,25.44,South,169,0.0,1.0,72,0.00,,---,0.00,VWS V14.00,2013-09-08 21:43:00,
2013-09-08 17:48:00,83.2,73.7,25.44,South,170,0.0,1.0,73,0.00,,---,0.00,VWS V14.00,2013-09-08 21:48:00,
2013-09-08 17:53:00,83.2,73.2,25.44,South,170,0.0,1.0,72,0.00,,---,0.00,VWS V14.00,2013-09-08 21:53:00,
2013-09-08 17:58:00,83.0,73.1,25.44,South,170,0.0,1.0,72,0.00,,---,0.00,VWS V14.00,2013-09-08 21:58:00,
2013-09-08 18:03:00,82.6,73.1,25.44,South,170,0.0,1.0,73,0.00,,---,0.00,VWS V14.00,2013-09-08 22:03:00,
2013-09-08 18:08:00,82.2,72.7,31.42,South,169,0.0,1.0,73,0.00,,---,0.00,VWS V14.00,2013-09-08 22:08:00,
2013-09-08 18:13:00,82.1,73.4,31.42,South,169,0.0,1.0,75,0.00,,---,0.00,VWS V14.00,2013-09-08 22:13:00,
2013-09-08 18:18:00,82.0,73.3,31.42,South,169,1.0,2.0,75,0.00,,---,0.00,VWS V14.00,2013-09-08 22:18:00,
2013-09-08 18:23:00,81.9,73.2,31.42,South,170,0.0,2.0,75,0.00,,---,0.00,VWS V14.00,2013-09-08 22:23:00,
2013-09-08 18:28:00,81.7,72.6,31.42,South,169,0.0,2.0,74,0.00,,---,0.00,VWS V14.00,2013-09-08 22:28:00,
2013-09-08 18:33:00,81.5,72.4,31.42,South,169,0.0,2.0,74,0.00,,---,0.00,VWS V14.00,2013-09-08 22:33:00,
2013-09-08 18:39:00,81.3,73.0,31.42,South,169,0.0,0.0,76,0.00,,---,0.00,VWS V14.00,2013-09-08 22:39:00,
2013-09-08 18:44:00,81.1,72.0,31.42,South,170,0.0,1.0,74,0.00,,---,0.00,VWS V14.00,2013-09-08 22:44:00,
2013-09-08 18:49:00,80.9,72.2,31.42,South,170,0.0,1.0,75,0.00,,---,0.00,VWS V14.00,2013-09-08 22:49:00,
2013-09-08 18:54:00,80.7,72.4,31.42,South,169,0.0,2.0,76,0.00,,---,0.00,VWS V14.00,2013-09-08 22:54:00,
2013-09-08 18:59:00,80.3,71.3,31.42,South,170,0.0,2.0,74,0.00,,---,0.00,VWS V14.00,2013-09-08 22:59:00,
2013-09-08 19:04:00,80.0,69.8,31.42,South,183,0.0,5.0,71,0.00,,---,0.00,VWS V14.00,2013-09-08 23:04:00,
2013-09-08 19:09:00,79.7,70.3,31.42,South,183,2.0,2.0,73,0.00,,---,0.00,VWS V14.00,2013-09-08 23:09:00,
2013-09-08 19:14:00,79.5,69.3,31.42,South,183,0.0,4.0,71,0.00,,---,0.00,VWS V14.00,2013-09-08 23:14:00,
2013-09-08 19:19:00,79.3,69.9,31.90,South,183,0.0,4.0,73,0.00,,---,0.00,VWS V14.00,2013-09-08 23:19:00,
2013-09-08 19:24:00,79.0,69.6,31.90,South,183,0.0,4.0,73,0.00,,---,0.00,VWS V14.00,2013-09-08 23:24:00,
2013-09-08 19:29:00,78.7,69.7,31.90,South,183,2.0,4.0,74,0.00,,---,0.00,VWS V14.00,2013-09-08 23:29:00,
2013-09-08 19:34:00,78.3,70.9,31.90,South,183,1.0,4.0,78,0.00,,---,0.00,VWS V14.00,2013-09-08 23:34:00,
2013-09-08 19:39:00,77.9,70.9,31.90,South,183,1.0,2.0,79,0.00,,---,0.00,VWS V14.00,2013-09-08 23:39:00,
2013-09-08 19:44:00,77.3,70.7,31.90,South,183,0.0,2.0,80,0.00,,---,0.00,VWS V14.00,2013-09-08 23:44:00,
2013-09-08 19:50:00,76.6,70.0,31.90,South,183,0.0,2.0,80,0.00,,---,0.00,VWS V14.00,2013-09-08 23:50:00,
2013-09-08 19:55:00,76.2,70.3,26.62,South,183,0.0,3.0,82,0.00,,---,0.00,VWS V14.00,2013-09-08 23:55:00,
2013-09-08 20:00:00,76.0,69.8,26.62,South,184,0.0,4.0,81,0.00,,---,0.00,VWS V14.00,2013-09-09 00:00:00,
2013-09-08 20:05:00,75.7,69.8,26.62,South,183,0.0,4.0,82,0.00,,---,0.00,VWS V14.00,2013-09-09 00:05:00,
2013-09-08 20:10:00,75.3,69.4,26.62,South,183,0.0,1.0,82,0.00,,---,0.00,VWS V14.00,2013-09-09 00:10:00,
2013-09-08 20:15:00,75.2,69.3,26.62,South,184,2.0,3.0,82,0.00,,---,0.00,VWS V14.00,2013-09-09 00:15:00,
2013-09-08 20:20:00,74.9,69.0,26.62,South,184,0.0,3.0,82,0.00,,---,0.00,VWS V14.00,2013-09-09 00:20:00,
2013-09-08 20:25:00,74.4,68.9,26.62,South,184,0.0,3.0,83,0.00,,---,0.00,VWS V14.00,2013-09-09 00:25:00,
2013-09-08 20:30:00,74.0,68.9,26.62,South,183,0.0,3.0,84,0.00,,---,0.00,VWS V14.00,2013-09-09 00:30:00,
2013-09-08 20:36:00,73.7,68.9,26.62,South,183,0.0,3.0,85,0.00,,---,0.00,VWS V14.00,2013-09-09 00:36:00,
2013-09-08 20:41:00,73.5,68.7,26.62,South,184,3.0,3.0,85,0.00,,---,0.00,VWS V14.00,2013-09-09 00:41:00,
2013-09-08 20:46:00,73.4,69.0,26.62,South,189,2.0,4.0,86,0.00,,---,0.00,VWS V14.00,2013-09-09 00:46:00,
2013-09-08 20:51:00,73.5,69.4,26.62,South,189,4.0,4.0,87,0.00,,---,0.00,VWS V14.00,2013-09-09 00:51:00,
2013-09-08 20:56:00,73.7,69.6,30.01,South,188,0.0,4.0,87,0.00,,---,0.00,VWS V14.00,2013-09-09 00:56:00,
2013-09-08 21:01:00,74.1,70.0,30.01,South,188,0.0,4.0,87,0.00,,---,0.00,VWS V14.00,2013-09-09 01:01:00,
2013-09-08 21:06:00,74.2,69.8,30.01,South,188,0.0,4.0,86,0.00,,---,0.00,VWS V14.00,2013-09-09 01:06:00,
2013-09-08 21:11:00,74.0,69.6,30.01,South,188,0.0,1.0,86,0.00,,---,0.00,VWS V14.00,2013-09-09 01:11:00,
2013-09-08 21:16:00,73.7,69.3,30.01,South,189,0.0,1.0,86,0.00,,---,0.00,VWS V14.00,2013-09-09 01:16:00,
2013-09-08 21:22:00,73.6,69.5,30.01,South,188,0.0,1.0,87,0.00,,---,0.00,VWS V14.00,2013-09-09 01:22:00,
2013-09-08 21:27:00,73.6,69.5,30.01,South,188,1.0,2.0,87,0.00,,---,0.00,VWS V14.00,2013-09-09 01:27:00,
2013-09-08 21:32:00,73.5,69.7,30.01,South,189,1.0,2.0,88,0.00,,---,0.00,VWS V14.00,2013-09-09 01:32:00,
2013-09-08 21:37:00,73.5,69.7,30.01,South,189,0.0,2.0,88,0.00,,---,0.00,VWS V14.00,2013-09-09 01:37:00,
2013-09-08 21:42:00,73.7,69.9,30.01,South,189,0.0,1.0,88,0.00,,---,0.00,VWS V14.00,2013-09-09 01:42:00,
2013-09-08 21:47:00,73.8,70.0,30.01,South,189,0.0,2.0,88,0.00,,---,0.00,VWS V14.00,2013-09-09 01:47:00,
2013-09-08 21:52:00,73.6,69.8,30.01,South,189,0.0,2.0,88,0.00,,---,0.00,VWS V14.00,2013-09-09 01:52:00,
2013-09-08 21:58:00,73.5,70.1,30.01,South,189,1.0,2.0,89,0.00,,---,0.00,VWS V14.00,2013-09-09 01:58:00,
2013-09-08 22:03:00,73.4,70.0,30.01,South,189,0.0,2.0,89,0.00,,---,0.00,VWS V14.00,2013-09-09 02:03:00,
2013-09-08 22:08:00,73.4,70.0,30.01,South,188,0.0,0.0,89,0.00,,---,0.00,VWS V14.00,2013-09-09 02:08:00,
2013-09-08 22:13:00,73.4,70.0,30.01,South,189,0.0,0.0,89,0.00,,---,0.00,VWS V14.00,2013-09-09 02:13:00,
2013-09-08 22:18:00,73.1,69.7,30.01,South,189,1.0,1.0,89,0.00,,---,0.00,VWS V14.00,2013-09-09 02:18:00,
2013-09-08 22:23:00,73.2,70.1,30.01,South,190,2.0,3.0,90,0.00,,---,0.00,VWS V14.00,2013-09-09 02:23:00,
2013-09-08 22:28:00,73.2,70.1,30.01,South,189,0.0,3.0,90,0.00,,---,0.00,VWS V14.00,2013-09-09 02:28:00,
2013-09-08 22:33:00,73.3,70.2,30.01,South,188,0.0,3.0,90,0.00,,---,0.00,VWS V14.00,2013-09-09 02:33:00,
2013-09-08 22:38:00,73.3,70.2,30.01,South,189,0.0,0.0,90,0.00,,---,0.00,VWS V14.00,2013-09-09 02:38:00,
2013-09-08 22:43:00,73.2,70.1,30.01,South,188,0.0,0.0,90,0.00,,---,0.00,VWS V14.00,2013-09-09 02:43:00,
2013-09-08 22:48:00,73.2,70.1,30.01,South,189,0.0,1.0,90,0.00,,---,0.00,VWS V14.00,2013-09-09 02:48:00,
2013-09-08 22:53:00,73.1,70.0,30.01,South,189,0.0,1.0,90,0.00,,---,0.00,VWS V14.00,2013-09-09 02:53:00,
2013-09-08 22:58:00,72.9,69.8,30.01,South,188,0.0,1.0,90,0.00,,---,0.00,VWS V14.00,2013-09-09 02:58:00,
2013-09-08 23:03:00,72.8,69.7,30.01,South,189,0.0,2.0,90,0.00,,---,0.00,VWS V14.00,2013-09-09 03:03:00,
2013-09-08 23:08:00,72.8,69.7,30.01,South,188,0.0,0.0,90,0.00,,---,0.00,VWS V14.00,2013-09-09 03:08:00,
2013-09-08 23:13:00,73.0,69.9,30.01,South,188,0.0,1.0,90,0.00,,---,0.00,VWS V14.00,2013-09-09 03:13:00,
2013-09-08 23:18:00,73.1,70.0,30.01,South,189,0.0,1.0,90,0.00,,---,0.00,VWS V14.00,2013-09-09 03:18:00,
2013-09-08 23:23:00,73.0,69.9,30.01,South,189,0.0,1.0,90,0.00,,---,0.00,VWS V14.00,2013-09-09 03:23:00,
2013-09-08 23:28:00,72.9,69.8,30.01,South,189,0.0,1.0,90,0.00,,---,0.00,VWS V14.00,2013-09-09 03:28:00,
2013-09-08 23:34:00,72.9,69.8,30.01,South,189,0.0,1.0,90,0.00,,---,0.00,VWS V14.00,2013-09-09 03:34:00,
2013-09-08 23:39:00,72.8,69.7,30.01,South,190,0.0,0.0,90,0.00,,---,0.00,VWS V14.00,2013-09-09 03:39:00,
2013-09-08 23:44:00,72.7,69.6,30.01,South,190,0.0,1.0,90,0.00,,---,0.00,VWS V14.00,2013-09-09 03:44:00,
2013-09-08 23:49:00,72.7,69.6,30.01,South,188,0.0,1.0,90,0.00,,---,0.00,VWS V14.00,2013-09-09 03:49:00,
2013-09-08 23:54:00,72.6,69.5,30.01,South,189,0.0,3.0,90,0.00,,---,0.00,VWS V14.00,2013-09-09 03:54:00,
2013-09-08 23:59:00,72.5,69.4,30.01,South,188,0.0,3.0,90,0.00,,---,0.00,VWS V14.00,2013-09-09 03:59:00,